Lexington Weather

Lexington, Massachusetts, USA

34°F
4/16/2021 10:07am 
  • Lexington Conditions: Snow, Fog, Overcast
  • Temperature: 33.8°F / 1.0°CColder 1.1°F than last hour.
  • Dew Point: 32.5°FDecreased 1.1°Fsince last hour.
  • Relative Humidity: 95
  • Wind: Calm, 10-min avg: Calm, gust: None
  • Barometer: 29.50 inRising 0.02  inHg/hr Rising Slowly
  • Visibility: ½ mile
  • Snow Today: 1.3 in
  •   

Regional Weather Roundup
for Boston / Norton, MA

        
000
ASUS41 KBOX 121104
RWRBOX

REGIONAL WEATHER ROUNDUP
NATIONAL WEATHER SERVICE BOSTON/NORTON MA
700 AM EDT MON APR 12 2021

NOTE:  "FAIR" INDICATES FEW OR NO CLOUDS BELOW 12,000 FEET WITH NO 
SIGNIFICANT WEATHER AND/OR OBSTRUCTIONS TO VISIBILITY.

MAZALL-121200-
EASTERN MASSACHUSETTS
  
CITY           SKY/WX    TMP DP  RH WIND       PRES   REMARKS
BOSTON         MOCLDY    47  38  71 N13       29.80R                  
BEVERLY        PTCLDY    45  40  82 NE7       29.80R                  
LAWRENCE       CLEAR     45  38  76 NE10      29.82R                  
BEDFORD        CLEAR     43  39  86 NE6       29.79R                  
BLUE HILL        N/A     41  39  93 NE10G17   29.76S                  
NORWOOD        CLOUDY    46  40  79 N3        29.79R                  
MARSHFIELD     PTCLDY    46  43  87 VRB5      29.79R                  
PLYMOUTH       MOCLDY    44  40  85 NE7       29.77R                  
TAUNTON        CLOUDY    45  39  79 CALM      29.77S                  
NEW BEDFORD    CLOUDY    45  37  73 NE7       29.76R                  
$$

MAZALL-121200-
CAPE COD AND THE ISLANDS
  
CITY           SKY/WX    TMP DP  RH WIND       PRES   REMARKS
FALMOUTH       CLOUDY    43  39  87 NE12      29.74                   
HYANNIS        MOCLDY    46  39  76 N7        29.75R                  
CHATHAM        PTCLDY    45  39  79 NE6       29.78R                  
PROVINCETOWN   CLEAR     45  41  86 NE10      29.78R                  
NANTUCKET      CLOUDY    44  39  82 NE15      29.74S                  
MARTHAS VNYRD  CLOUDY    46  39  76 NE15      29.75R                  
$$
 
MAZALL-121200-
CENTRAL AND WESTERN MASSACHUSETTS
  
CITY           SKY/WX    TMP DP  RH WIND       PRES   REMARKS
WORCESTER      CLOUDY    42  34  73 NE8       29.77R                  
FITCHBURG      CLOUDY    45  37  73 N5        29.80R                  
ORANGE         LGT RAIN  43  40  89 NW5       29.80R                  
SPRINGFIELD    MOCLDY    46  35  66 N5        29.77R                  
WESTFIELD      CLOUDY    47  35  63 N5        29.78R                  
NORTH ADAMS    CLOUDY    49  35  58 E10       29.77R                  
PITTSFIELD     CLOUDY    45  32  60 VRB7      29.74R                  
$$
 
RIZALL-121200-
RHODE ISLAND
  
CITY           SKY/WX    TMP DP  RH WIND       PRES   REMARKS
PROVIDENCE     MOCLDY    45  37  73 NE12      29.77R                  
NEWPORT        CLOUDY    44  37  76 NE13      29.75R                  
BLOCK ISLAND   CLOUDY    44  37  76 NE16      29.73R                  
SMITHFIELD     CLOUDY    43  39  86 NE7       29.78R                  
WESTERLY       CLOUDY    44  35  70 NE9       29.73R                  
$$
 
CTZALL-121200-
CONNECTICUT
  
CITY           SKY/WX    TMP DP  RH WIND       PRES   REMARKS
BRADLEY INTL   MOCLDY    47  36  65 N8        29.77R                  
HARTFORD       CLOUDY    48  37  65 N8        29.77R                  
BRIDGEPORT     CLOUDY    48  37  65 NE8       29.74R                  
DANBURY        CLOUDY    47  40  76 NE5       29.75R                  
GROTON         CLOUDY    46  34  62 NE14      29.73R                  
NEW HAVEN      CLOUDY    49  37  63 NE8       29.74R                  
CHESTER        CLOUDY    45  37  76 NE5       29.75R                  
MERIDEN        LGT RAIN  47  36  65 VRB7      29.76R                  
WILLIMANTIC    CLOUDY    45  34  65 NE10      29.76R                  
OXFORD         CLOUDY    44  39  82 NE13      29.74R                  
$$

MEZ002-015-021-024-NHZ003-005-008-011-012-014-VTZ005-008-121200-
NORTHERN NEW ENGLAND
  
CITY           SKY/WX    TMP DP  RH WIND       PRES   REMARKS
PORTLAND ME    CLOUDY    47  44  90 N12       29.84R                  
BANGOR ME      DRIZZLE   47  44  90 N13       29.85S FOG              
CONCORD NH     CLOUDY    44  38  79 NE6       29.83R                  
MANCHESTER NH  MOCLDY    47  41  80 NE7       29.81R                  
NASHUA NH      CLEAR     45  40  82 VRB3      29.82R                  
PORTSMOUTH NH  CLOUDY    45  39  80 N5        29.83R                  
JAFFREY NH     CLOUDY    44  37  76 VRB3      29.79R                  
KEENE NH       CLOUDY    43  42  97 CALM      29.80R                  
BURLINGTON VT  MOCLDY    51  38  60 CALM      29.80R                  
MT. WASHINGTON FRZ DRZL  30  30 100 E49G58      N/A  VSB 1/16WCI  12  
$$

NYZ052-076-121200-
EASTERN NEW YORK
  
CITY           SKY/WX    TMP DP  RH WIND       PRES   REMARKS
ALBANY         LGT RAIN  43  38  82 W5        29.78R                  
NEW YORK CITY  CLOUDY    47  39  74 NE10      29.72R                  
$$
 
ANZALL-121200-
MARINE OBSERVATIONS
  
STATION/POSITION TIME  TEMP    WIND        PRES    VSBY  WAVE
                       AIR SEA DIR/SP/G                  HT/PER
                 (UTC) (F)     (DEG/KT/KT) (MB)    (MI)  (FT/S)
BOSTON BUOY      1040   45 44   30/ 12/ 14 1009.3R
BUZZARDS BAY     1000           40/ 20/ 22 1007.7R
NANTUCKET SOUND  1040      47                N/A
MASS BAY-STELLWA NOT AVBL
ISLE OF SHOALS   1000   44      20/ 15/ 17 1008.9R
S OF BLOCK IS    1026      45                N/A           5/ 6
$$

......................KEY.........................
  SKY/WX - SKY CONDITION/PRESENT WEATHER
  TMP    - TEMPERATURE IN FAHRENHEIT
  DWPT   - DEWPOINT IN FAHRENHEIT
  RH     - RELATIVE HUMIDITY IN PERCENT
  WIND   - DIRECTION AND SPEED IN MPH
  PRES   - MEAN SEA LEVEL PRESSURE IN INCHES OF HG
  WCI    - WIND CHILL INDEX
  VSB    - VISIBILITY IN MILES
  HX     - HEAT INDEX
  TC     - TEMPERATURE IN CELSIUS
  VRB    - VARIABLE WIND DIRECTION
  N/A    - NOT AVAILABLE
  
      

Other recent Regional Weather Roundups

Fri Apr 16, 9:04am

Fri Apr 16, 8:04am

Fri Apr 16, 7:04am

Fri Apr 16, 6:04am

Fri Apr 16, 5:04am

Fri Apr 16, 4:04am

Fri Apr 16, 3:04am

Fri Apr 16, 2:04am

Fri Apr 16, 1:04am

Fri Apr 16, 12:04am

Thu Apr 15, 11:05pm

Thu Apr 15, 10:04pm

Thu Apr 15, 9:04pm

Thu Apr 15, 8:04pm

Thu Apr 15, 7:05pm

Thu Apr 15, 6:04pm

Thu Apr 15, 5:05pm

Thu Apr 15, 4:04pm

Thu Apr 15, 3:05pm

Thu Apr 15, 2:04pm

Thu Apr 15, 1:05pm

Thu Apr 15, 12:04pm

Thu Apr 15, 11:04am

Thu Apr 15, 10:05am

Thu Apr 15, 9:04am

Thu Apr 15, 8:04am

Thu Apr 15, 7:04am

Thu Apr 15, 6:04am

Thu Apr 15, 5:04am

Thu Apr 15, 4:04am

Thu Apr 15, 3:04am

Thu Apr 15, 2:04am

Thu Apr 15, 1:04am

Thu Apr 15, 12:04am

Wed Apr 14, 11:04pm

Wed Apr 14, 10:04pm

Wed Apr 14, 9:04pm

Wed Apr 14, 8:04pm

Wed Apr 14, 7:04pm

Wed Apr 14, 6:04pm

Wed Apr 14, 5:05pm

Wed Apr 14, 4:04pm

Wed Apr 14, 3:05pm

Wed Apr 14, 2:04pm

Wed Apr 14, 1:05pm

Wed Apr 14, 12:04pm

Wed Apr 14, 11:04am

Wed Apr 14, 10:04am

Wed Apr 14, 9:04am

Wed Apr 14, 8:04am

Wed Apr 14, 7:04am

Wed Apr 14, 6:04am

Wed Apr 14, 5:04am

Wed Apr 14, 4:04am

Wed Apr 14, 3:04am

Wed Apr 14, 2:04am

Wed Apr 14, 1:04am

Wed Apr 14, 12:04am

Tue Apr 13, 11:04pm

Tue Apr 13, 10:05pm

Tue Apr 13, 9:05pm

Tue Apr 13, 8:05pm

Tue Apr 13, 7:04pm

Tue Apr 13, 6:04pm

Tue Apr 13, 5:05pm

Tue Apr 13, 4:04pm

Tue Apr 13, 3:04pm

Tue Apr 13, 2:05pm

Tue Apr 13, 1:04pm

Tue Apr 13, 12:05pm

Tue Apr 13, 11:05am

Tue Apr 13, 10:04am

Tue Apr 13, 9:04am

Tue Apr 13, 8:04am

Tue Apr 13, 7:04am

Tue Apr 13, 6:04am

Tue Apr 13, 5:04am

Tue Apr 13, 4:04am

Tue Apr 13, 3:04am

Tue Apr 13, 2:04am

Tue Apr 13, 1:04am

Tue Apr 13, 12:05am

Mon Apr 12, 11:04pm

Mon Apr 12, 10:04pm

Mon Apr 12, 9:04pm

Mon Apr 12, 8:04pm

Mon Apr 12, 7:05pm

Mon Apr 12, 6:04pm

Mon Apr 12, 5:04pm

Mon Apr 12, 4:04pm

Mon Apr 12, 3:05pm

Mon Apr 12, 2:04pm

Mon Apr 12, 1:05pm

Mon Apr 12, 12:04pm

Mon Apr 12, 11:04am

Mon Apr 12, 10:04am

Mon Apr 12, 9:04am

Mon Apr 12, 8:04am

Mon Apr 12, 6:04am

Mon Apr 12, 5:04am

Mon Apr 12, 4:04am

Mon Apr 12, 3:04am

Mon Apr 12, 2:04am

Mon Apr 12, 1:05am

Mon Apr 12, 12:04am

Sun Apr 11, 11:04pm

Sun Apr 11, 10:04pm

Sun Apr 11, 9:04pm

Sun Apr 11, 8:04pm

Sun Apr 11, 7:04pm

Sun Apr 11, 6:05pm

Sun Apr 11, 5:05pm

Sun Apr 11, 4:04pm

Sun Apr 11, 3:05pm

Sun Apr 11, 2:05pm

Sun Apr 11, 1:05pm

Sun Apr 11, 12:04pm

Sun Apr 11, 11:05am

Sun Apr 11, 10:05am

Sun Apr 11, 9:04am

Sun Apr 11, 8:04am

Sun Apr 11, 7:04am

Sun Apr 11, 6:04am

Sun Apr 11, 5:04am

Sun Apr 11, 4:04am

Sun Apr 11, 3:04am

Sun Apr 11, 2:04am

Sun Apr 11, 1:05am

Sun Apr 11, 12:04am

Sat Apr 10, 11:05pm

Sat Apr 10, 10:04pm

Sat Apr 10, 9:04pm

Sat Apr 10, 8:04pm

Sat Apr 10, 7:05pm

Sat Apr 10, 6:04pm

Sat Apr 10, 5:04pm

Sat Apr 10, 4:04pm

Sat Apr 10, 3:04pm

Sat Apr 10, 2:05pm

Sat Apr 10, 1:04pm

Sat Apr 10, 12:04pm

Sat Apr 10, 11:04am

Sat Apr 10, 10:04am

Sat Apr 10, 9:04am

Sat Apr 10, 8:04am

Sat Apr 10, 7:04am

Sat Apr 10, 6:04am

Sat Apr 10, 5:04am

Sat Apr 10, 4:04am

Sat Apr 10, 3:04am

Sat Apr 10, 2:04am

Sat Apr 10, 1:05am

Sat Apr 10, 12:04am

Fri Apr 9, 11:04pm

Fri Apr 9, 10:05pm

Fri Apr 9, 9:04pm

Fri Apr 9, 8:05pm

Fri Apr 9, 7:05pm

Fri Apr 9, 6:04pm

Fri Apr 9, 5:04pm

Fri Apr 9, 4:05pm

Fri Apr 9, 3:05pm

Fri Apr 9, 2:04pm

Fri Apr 9, 1:04pm

Fri Apr 9, 12:04pm

Fri Apr 9, 11:05am

Fri Apr 9, 10:04am

Meta data:

ID: 95f5ace0-33c7-494a-97ab-bb7038dfc17c
Link: https://api.weather.gov/products/95f5ace0-33c7-494a-97ab-bb7038dfc17c